Time,TemperatureF,DewpointF,PressureIn,WindDirection,WindDirectionDegrees,WindSpeedMPH,WindSpeedGustMPH,Humidity,HourlyPrecipIn,Conditions,Clouds,dailyrainin,SoftwareType,DateUTC
2013-05-12 00:01:00,58.1,49.9,29.69,WNW,290,0.0,0.0,74,0.00,OVC,,0.00,WeatherDisplay:10.37,2013-05-12 04:01:00,
2013-05-12 00:02:00,58.1,49.9,29.69,WNW,290,3.5,3.5,74,0.00,OVC,,0.00,WeatherDisplay:10.37,2013-05-12 04:02:00,
2013-05-12 00:07:00,58.1,49.9,29.69,WNW,290,3.5,3.5,74,0.00,OVC,,0.00,WeatherDisplay:10.37,2013-05-12 04:07:00,
2013-05-12 00:12:00,57.9,49.7,29.69,WNW,290,3.5,3.5,74,0.00,OVC,,0.00,WeatherDisplay:10.37,2013-05-12 04:12:00,
2013-05-12 00:17:00,57.9,49.7,29.69,WNW,290,3.5,3.5,74,0.00,OVC,,0.00,WeatherDisplay:10.37,2013-05-12 04:17:00,
2013-05-12 00:22:00,57.9,49.7,29.69,WNW,290,3.5,3.5,74,0.00,OVC,,0.00,WeatherDisplay:10.37,2013-05-12 04:22:00,
2013-05-12 00:27:00,57.7,49.5,29.69,WNW,290,3.5,3.5,74,0.00,OVC,,0.00,WeatherDisplay:10.37,2013-05-12 04:27:00,
2013-05-12 00:32:00,57.4,49.2,29.69,WNW,290,3.5,3.5,74,0.00,OVC,,0.00,WeatherDisplay:10.37,2013-05-12 04:32:00,
2013-05-12 00:37:00,57.2,49.0,29.69,WNW,290,3.5,3.5,74,0.00,OVC,,0.00,WeatherDisplay:10.37,2013-05-12 04:37:00,
2013-05-12 00:42:00,57.6,49.3,29.69,WNW,290,3.5,3.5,74,0.00,OVC,,0.00,WeatherDisplay:10.37,2013-05-12 04:42:00,
2013-05-12 00:47:00,57.4,49.2,29.69,WNW,290,3.5,3.5,74,0.00,OVC,,0.00,WeatherDisplay:10.37,2013-05-12 04:47:00,
2013-05-12 00:52:00,57.4,49.2,29.69,WNW,290,3.5,3.5,74,0.00,OVC,,0.00,WeatherDisplay:10.37,2013-05-12 04:52:00,
2013-05-12 00:57:00,57.0,48.8,29.69,WNW,290,3.5,3.5,74,0.00,OVC,,0.00,WeatherDisplay:10.37,2013-05-12 04:57:00,
2013-05-12 01:02:00,56.8,48.6,29.69,NNW,330,6.9,6.9,74,0.00,-RA,,0.00,WeatherDisplay:10.37,2013-05-12 05:02:00,
2013-05-12 01:07:00,56.8,48.6,29.69,NNW,330,6.9,6.9,74,0.00,-RA,,0.00,WeatherDisplay:10.37,2013-05-12 05:07:00,
2013-05-12 01:12:00,56.5,48.3,29.69,NNW,330,6.9,6.9,74,0.00,-RA,,0.00,WeatherDisplay:10.37,2013-05-12 05:12:00,
2013-05-12 01:17:00,55.6,47.4,29.66,NNW,330,6.9,6.9,74,0.00,-RA,,0.00,WeatherDisplay:10.37,2013-05-12 05:17:00,
2013-05-12 01:22:00,55.4,47.2,29.66,NNW,330,6.9,6.9,74,0.00,-RA,,0.00,WeatherDisplay:10.37,2013-05-12 05:22:00,
2013-05-12 01:27:00,55.8,47.6,29.66,NNW,330,6.9,6.9,74,0.00,-RA,,0.00,WeatherDisplay:10.37,2013-05-12 05:27:00,
2013-05-12 01:32:00,55.9,47.8,29.69,NNW,330,6.9,6.9,74,0.00,-RA,,0.00,WeatherDisplay:10.37,2013-05-12 05:32:00,
2013-05-12 01:37:00,55.4,47.2,29.69,NNW,330,6.9,6.9,74,0.00,-RA,,0.00,WeatherDisplay:10.37,2013-05-12 05:37:00,
2013-05-12 01:42:00,55.4,47.2,29.69,NNW,330,6.9,6.9,74,0.00,-RA,,0.00,WeatherDisplay:10.37,2013-05-12 05:42:00,
2013-05-12 01:47:00,55.4,47.2,29.69,NNW,330,6.9,6.9,74,0.00,-RA,,0.00,WeatherDisplay:10.37,2013-05-12 05:47:00,
2013-05-12 01:52:00,55.6,47.4,29.69,NNW,330,6.9,6.9,74,0.00,-RA,,0.00,WeatherDisplay:10.37,2013-05-12 05:52:00,
2013-05-12 01:57:00,55.6,47.4,29.69,NNW,330,6.9,6.9,74,0.00,-RA,,0.00,WeatherDisplay:10.37,2013-05-12 05:57:00,
2013-05-12 02:02:00,55.8,47.6,29.69,NW,320,9.2,9.2,74,0.00,OVC,,0.00,WeatherDisplay:10.37,2013-05-12 06:02:00,
2013-05-12 02:07:00,55.8,47.6,29.69,NW,320,9.2,9.2,74,0.00,OVC,,0.00,WeatherDisplay:10.37,2013-05-12 06:07:00,
2013-05-12 02:12:00,55.6,47.4,29.69,NW,320,9.2,9.2,74,0.00,OVC,,0.00,WeatherDisplay:10.37,2013-05-12 06:12:00,
2013-05-12 02:17:00,55.2,47.1,29.66,NW,320,9.2,9.2,74,0.00,OVC,,0.00,WeatherDisplay:10.37,2013-05-12 06:17:00,
2013-05-12 02:22:00,55.4,47.2,29.66,NW,320,9.2,9.2,74,0.00,OVC,,0.00,WeatherDisplay:10.37,2013-05-12 06:22:00,
2013-05-12 02:27:00,55.4,47.2,29.66,NW,320,9.2,9.2,74,0.00,OVC,,0.00,WeatherDisplay:10.37,2013-05-12 06:27:00,
2013-05-12 02:32:00,55.4,47.2,29.69,NW,320,9.2,9.2,74,0.00,OVC,,0.00,WeatherDisplay:10.37,2013-05-12 06:32:00,
2013-05-12 02:37:00,55.2,47.1,29.69,NW,320,9.2,9.2,74,0.00,OVC,,0.00,WeatherDisplay:10.37,2013-05-12 06:37:00,
2013-05-12 02:42:00,55.2,47.1,29.69,NW,320,9.2,9.2,74,0.00,OVC,,0.00,WeatherDisplay:10.37,2013-05-12 06:42:00,
2013-05-12 02:47:00,55.0,46.9,29.69,NW,320,9.2,9.2,74,0.00,OVC,,0.00,WeatherDisplay:10.37,2013-05-12 06:47:00,
2013-05-12 02:52:00,55.2,47.1,29.69,NW,320,9.2,9.2,74,0.00,OVC,,0.00,WeatherDisplay:10.37,2013-05-12 06:52:00,
2013-05-12 02:57:00,54.9,46.7,29.69,NW,320,9.2,9.2,74,0.00,OVC,,0.00,WeatherDisplay:10.37,2013-05-12 06:57:00,
2013-05-12 03:02:00,54.9,46.4,29.69,WNW,300,6.9,9.2,73,0.00,OVC,,0.00,WeatherDisplay:10.37,2013-05-12 07:02:00,
2013-05-12 03:07:00,54.9,46.4,29.69,WNW,300,6.9,6.9,73,0.00,OVC,,0.00,WeatherDisplay:10.37,2013-05-12 07:07:00,
2013-05-12 03:12:00,54.7,46.2,29.69,WNW,300,6.9,6.9,73,0.00,OVC,,0.00,WeatherDisplay:10.37,2013-05-12 07:12:00,
2013-05-12 03:17:00,54.7,46.2,29.69,WNW,300,6.9,6.9,73,0.00,OVC,,0.00,WeatherDisplay:10.37,2013-05-12 07:17:00,
2013-05-12 03:22:00,54.7,46.2,29.69,WNW,300,6.9,6.9,73,0.00,OVC,,0.00,WeatherDisplay:10.37,2013-05-12 07:22:00,
2013-05-12 03:27:00,54.9,46.4,29.69,WNW,300,6.9,6.9,73,0.00,OVC,,0.00,WeatherDisplay:10.37,2013-05-12 07:27:00,
2013-05-12 03:32:00,54.7,46.2,29.66,WNW,300,6.9,6.9,73,0.00,OVC,,0.00,WeatherDisplay:10.37,2013-05-12 07:32:00,
2013-05-12 03:37:00,54.7,46.2,29.66,WNW,300,6.9,6.9,73,0.00,OVC,,0.00,WeatherDisplay:10.37,2013-05-12 07:37:00,
2013-05-12 03:42:00,54.7,46.2,29.66,WNW,300,6.9,6.9,73,0.00,OVC,,0.00,WeatherDisplay:10.37,2013-05-12 07:42:00,
2013-05-12 03:47:00,54.7,46.2,29.66,WNW,300,6.9,6.9,73,0.00,OVC,,0.00,WeatherDisplay:10.37,2013-05-12 07:47:00,
2013-05-12 03:52:00,54.7,46.2,29.66,WNW,300,6.9,6.9,73,0.00,OVC,,0.00,WeatherDisplay:10.37,2013-05-12 07:52:00,
2013-05-12 03:57:00,54.5,46.0,29.66,WNW,300,6.9,6.9,73,0.00,OVC,,0.00,WeatherDisplay:10.37,2013-05-12 07:57:00,
2013-05-12 04:02:00,54.5,46.0,29.66,WNW,300,6.9,6.9,73,0.00,OVC,,0.00,WeatherDisplay:10.37,2013-05-12 08:02:00,
2013-05-12 04:07:00,54.7,46.2,29.66,WNW,300,6.9,6.9,73,0.00,OVC,,0.00,WeatherDisplay:10.37,2013-05-12 08:07:00,
2013-05-12 04:12:00,54.9,46.4,29.66,WNW,300,6.9,6.9,73,0.00,OVC,,0.00,WeatherDisplay:10.37,2013-05-12 08:12:00,
2013-05-12 04:17:00,54.9,46.4,29.69,WNW,300,6.9,6.9,73,0.00,OVC,,0.00,WeatherDisplay:10.37,2013-05-12 08:17:00,
2013-05-12 04:22:00,54.9,46.4,29.69,WNW,300,6.9,6.9,73,0.00,OVC,,0.00,WeatherDisplay:10.37,2013-05-12 08:22:00,
2013-05-12 04:27:00,54.9,46.4,29.69,WNW,300,6.9,6.9,73,0.00,OVC,,0.00,WeatherDisplay:10.37,2013-05-12 08:27:00,
2013-05-12 04:32:00,54.9,46.4,29.66,WNW,300,6.9,6.9,73,0.00,OVC,,0.00,WeatherDisplay:10.37,2013-05-12 08:32:00,
2013-05-12 04:37:00,54.5,46.0,29.66,WNW,300,6.9,6.9,73,0.00,OVC,,0.00,WeatherDisplay:10.37,2013-05-12 08:37:00,
2013-05-12 04:42:00,54.5,46.0,29.66,WNW,300,6.9,6.9,73,0.00,OVC,,0.00,WeatherDisplay:10.37,2013-05-12 08:42:00,
2013-05-12 04:47:00,54.5,46.0,29.66,WNW,300,6.9,6.9,73,0.00,OVC,,0.00,WeatherDisplay:10.37,2013-05-12 08:47:00,
2013-05-12 04:52:00,54.5,46.0,29.66,WNW,300,6.9,6.9,73,0.00,OVC,,0.00,WeatherDisplay:10.37,2013-05-12 08:52:00,
2013-05-12 04:57:00,54.5,46.0,29.66,WNW,300,6.9,6.9,73,0.00,OVC,,0.00,WeatherDisplay:10.37,2013-05-12 08:57:00,
2013-05-12 05:02:00,54.5,47.1,29.66,NW,320,4.6,6.9,76,0.00,OVC,,0.00,WeatherDisplay:10.37,2013-05-12 09:02:00,
2013-05-12 05:07:00,54.5,47.1,29.66,NW,320,4.6,4.6,76,0.00,OVC,,0.00,WeatherDisplay:10.37,2013-05-12 09:07:00,
2013-05-12 05:12:00,54.5,47.1,29.66,NW,320,4.6,4.6,76,0.00,OVC,,0.00,WeatherDisplay:10.37,2013-05-12 09:12:00,
2013-05-12 05:17:00,54.5,47.1,29.66,NW,320,4.6,4.6,76,0.00,OVC,,0.00,WeatherDisplay:10.37,2013-05-12 09:17:00,
2013-05-12 05:22:00,54.5,47.1,29.66,NW,320,4.6,4.6,76,0.00,OVC,,0.00,WeatherDisplay:10.37,2013-05-12 09:22:00,
2013-05-12 05:27:00,54.5,47.1,29.66,NW,320,4.6,4.6,76,0.00,OVC,,0.00,WeatherDisplay:10.37,2013-05-12 09:27:00,
2013-05-12 05:32:00,54.5,47.1,29.66,NW,320,4.6,4.6,76,0.00,OVC,,0.00,WeatherDisplay:10.37,2013-05-12 09:32:00,
2013-05-12 05:37:00,54.3,46.9,29.66,NW,320,4.6,4.6,76,0.00,OVC,,0.00,WeatherDisplay:10.37,2013-05-12 09:37:00,
2013-05-12 05:42:00,54.3,46.9,29.66,NW,320,4.6,4.6,76,0.00,OVC,,0.00,WeatherDisplay:10.37,2013-05-12 09:42:00,
2013-05-12 05:47:00,54.1,46.7,29.66,NW,320,4.6,4.6,76,0.00,OVC,,0.00,WeatherDisplay:10.37,2013-05-12 09:47:00,
2013-05-12 05:52:00,54.3,46.9,29.66,NW,320,4.6,4.6,76,0.00,OVC,,0.00,WeatherDisplay:10.37,2013-05-12 09:52:00,
2013-05-12 05:57:00,54.3,46.9,29.66,NW,320,4.6,4.6,76,0.00,OVC,,0.00,WeatherDisplay:10.37,2013-05-12 09:57:00,
2013-05-12 06:02:00,54.3,46.9,29.66,NW,310,3.5,4.6,76,0.00,OVC,,0.00,WeatherDisplay:10.37,2013-05-12 10:02:00,
2013-05-12 06:07:00,54.3,46.9,29.66,NW,310,3.5,3.5,76,0.00,OVC,,0.00,WeatherDisplay:10.37,2013-05-12 10:07:00,
2013-05-12 06:12:00,54.3,46.9,29.66,NW,310,3.5,3.5,76,0.00,OVC,,0.00,WeatherDisplay:10.37,2013-05-12 10:12:00,
2013-05-12 06:17:00,54.1,46.7,29.66,NW,310,3.5,3.5,76,0.00,OVC,,0.00,WeatherDisplay:10.37,2013-05-12 10:17:00,
2013-05-12 06:22:00,54.3,46.9,29.66,NW,310,3.5,3.5,76,0.00,OVC,,0.00,WeatherDisplay:10.37,2013-05-12 10:22:00,
2013-05-12 06:27:00,54.3,46.9,29.66,NW,310,3.5,3.5,76,0.00,OVC,,0.00,WeatherDisplay:10.37,2013-05-12 10:27:00,
2013-05-12 06:32:00,54.3,46.9,29.66,NW,310,3.5,3.5,76,0.00,OVC,,0.00,WeatherDisplay:10.37,2013-05-12 10:32:00,
2013-05-12 06:37:00,54.3,46.9,29.66,NW,310,3.5,3.5,76,0.00,OVC,,0.00,WeatherDisplay:10.37,2013-05-12 10:37:00,
2013-05-12 06:42:00,54.5,47.1,29.66,NW,310,3.5,3.5,76,0.00,OVC,,0.00,WeatherDisplay:10.37,2013-05-12 10:42:00,
2013-05-12 06:47:00,54.5,47.1,29.69,NW,310,3.5,3.5,76,0.00,OVC,,0.00,WeatherDisplay:10.37,2013-05-12 10:47:00,
2013-05-12 06:52:00,54.7,47.3,29.69,NW,310,3.5,3.5,76,0.00,OVC,,0.00,WeatherDisplay:10.37,2013-05-12 10:52:00,
2013-05-12 06:57:00,54.7,47.3,29.69,NW,310,3.5,3.5,76,0.00,OVC,,0.00,WeatherDisplay:10.37,2013-05-12 10:57:00,
2013-05-12 07:02:00,54.5,48.5,29.69,NW,310,0.0,3.5,80,0.00,BKN,,0.00,WeatherDisplay:10.37,2013-05-12 11:02:00,
2013-05-12 07:07:00,54.5,48.5,29.69,NW,310,0.0,0.0,80,0.00,BKN,,0.00,WeatherDisplay:10.37,2013-05-12 11:07:00,
2013-05-12 07:12:00,54.5,48.5,29.69,NW,310,0.0,0.0,80,0.00,BKN,,0.00,WeatherDisplay:10.37,2013-05-12 11:12:00,
2013-05-12 07:17:00,54.5,48.5,29.66,NW,310,0.0,0.0,80,0.00,BKN,,0.00,WeatherDisplay:10.37,2013-05-12 11:17:00,
2013-05-12 07:22:00,54.9,48.8,29.66,NW,310,0.0,0.0,80,0.00,BKN,,0.00,WeatherDisplay:10.37,2013-05-12 11:22:00,
2013-05-12 07:27:00,54.7,48.6,29.66,NW,310,0.0,0.0,80,0.00,BKN,,0.00,WeatherDisplay:10.37,2013-05-12 11:27:00,
2013-05-12 07:32:00,54.9,48.8,29.66,NW,310,0.0,0.0,80,0.00,BKN,,0.00,WeatherDisplay:10.37,2013-05-12 11:32:00,
2013-05-12 07:37:00,54.9,48.8,29.66,NW,310,0.0,0.0,80,0.00,BKN,,0.00,WeatherDisplay:10.37,2013-05-12 11:37:00,
2013-05-12 07:42:00,54.7,48.6,29.66,NW,310,0.0,0.0,80,0.00,BKN,,0.00,WeatherDisplay:10.37,2013-05-12 11:42:00,
2013-05-12 07:47:00,55.0,49.0,29.66,NW,310,0.0,0.0,80,0.00,BKN,,0.00,WeatherDisplay:10.37,2013-05-12 11:47:00,
2013-05-12 07:52:00,55.0,49.0,29.66,NW,310,0.0,0.0,80,0.00,BKN,,0.00,WeatherDisplay:10.37,2013-05-12 11:52:00,
2013-05-12 07:57:00,55.0,49.0,29.66,NW,310,0.0,0.0,80,0.00,BKN,,0.00,WeatherDisplay:10.37,2013-05-12 11:57:00,
2013-05-12 08:02:00,54.9,47.4,29.66,NW,310,0.0,0.0,76,0.00,BKN,,0.00,WeatherDisplay:10.37,2013-05-12 12:02:00,
2013-05-12 08:07:00,55.0,47.6,29.66,NW,310,0.0,0.0,76,0.00,BKN,,0.00,WeatherDisplay:10.37,2013-05-12 12:07:00,
2013-05-12 08:12:00,55.6,48.1,29.66,NW,310,0.0,0.0,76,0.00,BKN,,0.00,WeatherDisplay:10.37,2013-05-12 12:12:00,
2013-05-12 08:17:00,55.8,48.3,29.66,NW,310,0.0,0.0,76,0.00,BKN,,0.00,WeatherDisplay:10.37,2013-05-12 12:17:00,
2013-05-12 08:22:00,56.1,48.7,29.66,NW,310,0.0,0.0,76,0.00,BKN,,0.00,WeatherDisplay:10.37,2013-05-12 12:22:00,
2013-05-12 08:27:00,55.9,48.5,29.66,NW,310,0.0,0.0,76,0.00,BKN,,0.00,WeatherDisplay:10.37,2013-05-12 12:27:00,
2013-05-12 08:32:00,56.1,48.7,29.66,NW,310,0.0,0.0,76,0.00,BKN,,0.00,WeatherDisplay:10.37,2013-05-12 12:32:00,
2013-05-12 08:38:00,56.5,49.0,29.66,NW,310,0.0,0.0,76,0.00,BKN,,0.00,WeatherDisplay:10.37,2013-05-12 12:38:00,
2013-05-12 08:43:00,57.4,49.9,29.66,NW,310,0.0,0.0,76,0.00,BKN,,0.00,WeatherDisplay:10.37,2013-05-12 12:43:00,
2013-05-12 08:48:00,57.7,50.2,29.66,NW,310,0.0,0.0,76,0.00,BKN,,0.00,WeatherDisplay:10.37,2013-05-12 12:48:00,
2013-05-12 08:53:00,57.7,50.2,29.66,NW,310,0.0,0.0,76,0.00,BKN,,0.00,WeatherDisplay:10.37,2013-05-12 12:53:00,
2013-05-12 08:58:00,57.9,50.4,29.66,NW,310,0.0,0.0,76,0.00,BKN,,0.00,WeatherDisplay:10.37,2013-05-12 12:58:00,
2013-05-12 09:03:00,61.0,50.7,29.66,WNW,300,3.5,3.5,69,0.00,BKN,,0.00,WeatherDisplay:10.37,2013-05-12 13:03:00,
2013-05-12 09:08:00,70.3,59.7,29.66,WNW,300,3.5,3.5,69,0.00,BKN,,0.00,WeatherDisplay:10.37,2013-05-12 13:08:00,
2013-05-12 09:13:00,71.6,60.9,29.66,WNW,300,3.5,3.5,69,0.00,BKN,,0.00,WeatherDisplay:10.37,2013-05-12 13:13:00,
2013-05-12 09:18:00,66.0,55.6,29.66,WNW,300,3.5,3.5,69,0.00,BKN,,0.00,WeatherDisplay:10.37,2013-05-12 13:18:00,
2013-05-12 09:23:00,63.9,53.5,29.66,WNW,300,3.5,3.5,69,0.00,BKN,,0.00,WeatherDisplay:10.37,2013-05-12 13:23:00,
2013-05-12 09:28:00,63.1,52.8,29.66,WNW,300,3.5,3.5,69,0.00,BKN,,0.00,WeatherDisplay:10.37,2013-05-12 13:28:00,
2013-05-12 09:33:00,62.2,51.9,29.66,WNW,300,3.5,3.5,69,0.00,BKN,,0.00,WeatherDisplay:10.37,2013-05-12 13:33:00,
2013-05-12 09:38:00,62.2,51.9,29.66,WNW,300,3.5,3.5,69,0.00,BKN,,0.00,WeatherDisplay:10.37,2013-05-12 13:38:00,
2013-05-12 09:43:00,61.9,51.6,29.66,WNW,300,3.5,3.5,69,0.00,BKN,,0.00,WeatherDisplay:10.37,2013-05-12 13:43:00,
2013-05-12 09:48:00,62.1,51.8,29.63,WNW,300,3.5,3.5,69,0.00,BKN,,0.00,WeatherDisplay:10.37,2013-05-12 13:48:00,
2013-05-12 09:53:00,61.3,51.1,29.63,WNW,300,3.5,3.5,69,0.00,BKN,,0.00,WeatherDisplay:10.37,2013-05-12 13:53:00,
2013-05-12 09:58:00,60.6,50.4,29.63,WNW,300,3.5,3.5,69,0.00,BKN,,0.00,WeatherDisplay:10.37,2013-05-12 13:58:00,
2013-05-12 10:03:00,60.1,47.9,29.63,WNW,300,8.1,8.1,64,0.00,BKN,,0.00,WeatherDisplay:10.37,2013-05-12 14:03:00,
2013-05-12 10:08:00,59.9,47.7,29.63,WNW,300,8.1,8.1,64,0.00,BKN,,0.00,WeatherDisplay:10.37,2013-05-12 14:08:00,
2013-05-12 10:13:00,59.7,47.5,29.63,WNW,300,8.1,8.1,64,0.00,BKN,,0.00,WeatherDisplay:10.37,2013-05-12 14:13:00,
2013-05-12 10:18:00,59.5,47.3,29.63,WNW,300,8.1,8.1,64,0.00,BKN,,0.00,WeatherDisplay:10.37,2013-05-12 14:18:00,
2013-05-12 10:23:00,59.0,46.8,29.63,WNW,300,8.1,8.1,64,0.00,BKN,,0.00,WeatherDisplay:10.37,2013-05-12 14:23:00,
2013-05-12 10:28:00,58.1,46.0,29.63,WNW,300,8.1,8.1,64,0.00,BKN,,0.00,WeatherDisplay:10.37,2013-05-12 14:28:00,
2013-05-12 10:33:00,56.8,44.8,29.66,WNW,300,8.1,8.1,64,0.00,BKN,,0.00,WeatherDisplay:10.37,2013-05-12 14:33:00,
2013-05-12 10:38:00,55.8,43.8,29.66,WNW,300,8.1,8.1,64,0.00,BKN,,0.00,WeatherDisplay:10.37,2013-05-12 14:38:00,
2013-05-12 10:43:00,55.2,43.2,29.66,WNW,300,8.1,8.1,64,0.00,BKN,,0.00,WeatherDisplay:10.37,2013-05-12 14:43:00,
2013-05-12 10:48:00,54.9,42.9,29.66,WNW,300,8.1,8.1,64,0.00,BKN,,0.00,WeatherDisplay:10.37,2013-05-12 14:48:00,
2013-05-12 10:53:00,54.3,42.4,29.66,WNW,300,8.1,8.1,64,0.00,BKN,,0.00,WeatherDisplay:10.37,2013-05-12 14:53:00,
2013-05-12 10:58:00,54.0,42.1,29.66,WNW,300,8.1,8.1,64,0.00,BKN,,0.00,WeatherDisplay:10.37,2013-05-12 14:58:00,
2013-05-12 11:03:00,53.4,44.2,29.66,NW,310,19.6,34.5,71,0.00,OVC,,0.00,WeatherDisplay:10.37,2013-05-12 15:03:00,
2013-05-12 11:08:00,53.2,44.1,29.66,NW,310,19.6,34.5,71,0.00,OVC,,0.00,WeatherDisplay:10.37,2013-05-12 15:08:00,
2013-05-12 11:13:00,53.1,43.9,29.66,NW,310,19.6,34.5,71,0.00,OVC,,0.00,WeatherDisplay:10.37,2013-05-12 15:13:00,
2013-05-12 11:18:00,53.1,43.9,29.69,NW,310,19.6,34.5,71,0.00,OVC,,0.00,WeatherDisplay:10.37,2013-05-12 15:18:00,
2013-05-12 11:23:00,53.1,43.9,29.69,NW,310,19.6,34.5,71,0.00,OVC,,0.00,WeatherDisplay:10.37,2013-05-12 15:23:00,
2013-05-12 11:28:00,52.7,43.6,29.69,NW,310,19.6,34.5,71,0.00,OVC,,0.00,WeatherDisplay:10.37,2013-05-12 15:28:00,
2013-05-12 11:33:00,52.3,43.2,29.69,NW,310,19.6,34.5,71,0.00,OVC,,0.00,WeatherDisplay:10.37,2013-05-12 15:33:00,
2013-05-12 11:38:00,52.2,43.0,29.69,NW,310,19.6,34.5,71,0.00,OVC,,0.00,WeatherDisplay:10.37,2013-05-12 15:38:00,
2013-05-12 11:43:00,51.8,42.7,29.69,NW,310,19.6,34.5,71,0.00,OVC,,0.00,WeatherDisplay:10.37,2013-05-12 15:43:00,
2013-05-12 11:48:00,51.6,42.5,29.69,NW,310,19.6,34.5,71,0.00,OVC,,0.00,WeatherDisplay:10.37,2013-05-12 15:48:00,
2013-05-12 11:53:00,51.4,42.3,29.69,NW,310,19.6,34.5,71,0.00,OVC,,0.00,WeatherDisplay:10.37,2013-05-12 15:53:00,
2013-05-12 11:58:00,51.4,42.3,29.69,NW,310,19.6,34.5,71,0.00,OVC,,0.00,WeatherDisplay:10.37,2013-05-12 15:58:00,
2013-05-12 12:03:00,51.4,42.3,29.69,NW,310,19.6,34.5,71,0.00,OVC,,0.00,WeatherDisplay:10.37,2013-05-12 16:03:00,
2013-05-12 12:08:00,51.3,42.2,29.69,NW,310,19.6,34.5,71,0.00,OVC,,0.00,WeatherDisplay:10.37,2013-05-12 16:08:00,
2013-05-12 12:13:00,51.1,42.0,29.69,NW,310,19.6,34.5,71,0.00,OVC,,0.00,WeatherDisplay:10.37,2013-05-12 16:13:00,
2013-05-12 12:18:00,51.3,39.9,29.69,WNW,290,16.1,28.8,65,0.00,OVC,,0.00,WeatherDisplay:10.37,2013-05-12 16:18:00,
2013-05-12 12:23:00,51.3,39.9,29.69,WNW,290,16.1,28.8,65,0.00,OVC,,0.00,WeatherDisplay:10.37,2013-05-12 16:23:00,
2013-05-12 12:28:00,51.4,40.1,29.69,WNW,290,16.1,28.8,65,0.00,OVC,,0.00,WeatherDisplay:10.37,2013-05-12 16:28:00,
2013-05-12 12:33:00,51.4,40.1,29.69,WNW,290,16.1,28.8,65,0.00,OVC,,0.00,WeatherDisplay:10.37,2013-05-12 16:33:00,
2013-05-12 12:38:00,51.3,39.9,29.69,WNW,290,16.1,28.8,65,0.00,OVC,,0.00,WeatherDisplay:10.37,2013-05-12 16:38:00,
2013-05-12 12:43:00,51.6,40.2,29.69,WNW,290,16.1,28.8,65,0.00,OVC,,0.00,WeatherDisplay:10.37,2013-05-12 16:43:00,
2013-05-12 12:48:00,52.9,41.4,29.69,WNW,290,16.1,28.8,65,0.00,OVC,,0.00,WeatherDisplay:10.37,2013-05-12 16:48:00,
2013-05-12 12:53:00,54.0,42.5,29.69,WNW,290,16.1,28.8,65,0.00,OVC,,0.00,WeatherDisplay:10.37,2013-05-12 16:53:00,
2013-05-12 12:58:00,54.5,43.0,29.69,WNW,290,16.1,28.8,65,0.00,OVC,,0.00,WeatherDisplay:10.37,2013-05-12 16:58:00,
2013-05-12 13:03:00,55.2,40.7,29.69,WNW,300,12.7,26.5,58,0.00,-RA,,0.00,WeatherDisplay:10.37,2013-05-12 17:03:00,
2013-05-12 13:08:00,55.8,41.2,29.69,WNW,300,12.7,26.5,58,0.00,-RA,,0.00,WeatherDisplay:10.37,2013-05-12 17:08:00,
2013-05-12 13:13:00,55.2,40.7,29.69,WNW,300,12.7,26.5,58,0.00,-RA,,0.00,WeatherDisplay:10.37,2013-05-12 17:13:00,
2013-05-12 13:18:00,55.0,40.5,29.69,WNW,300,12.7,26.5,58,0.00,-RA,,0.00,WeatherDisplay:10.37,2013-05-12 17:18:00,
2013-05-12 13:23:00,54.9,40.4,29.69,WNW,300,12.7,26.5,58,0.00,-RA,,0.00,WeatherDisplay:10.37,2013-05-12 17:23:00,
2013-05-12 13:28:00,55.0,40.5,29.69,WNW,300,12.7,26.5,58,0.00,-RA,,0.00,WeatherDisplay:10.37,2013-05-12 17:28:00,
2013-05-12 13:33:00,55.8,41.2,29.72,WNW,300,12.7,26.5,58,0.00,-RA,,0.00,WeatherDisplay:10.37,2013-05-12 17:33:00,
2013-05-12 13:38:00,56.1,41.5,29.72,WNW,300,12.7,26.5,58,0.00,-RA,,0.00,WeatherDisplay:10.37,2013-05-12 17:38:00,
2013-05-12 13:43:00,56.7,42.0,29.72,WNW,300,12.7,26.5,58,0.00,-RA,,0.00,WeatherDisplay:10.37,2013-05-12 17:43:00,
2013-05-12 13:48:00,56.7,42.0,29.69,WNW,300,12.7,26.5,58,0.00,-RA,,0.00,WeatherDisplay:10.37,2013-05-12 17:48:00,
2013-05-12 13:53:00,56.7,42.0,29.69,WNW,300,12.7,26.5,58,0.00,-RA,,0.00,WeatherDisplay:10.37,2013-05-12 17:53:00,
2013-05-12 13:58:00,56.3,41.7,29.69,WNW,300,12.7,26.5,58,0.00,-RA,,0.00,WeatherDisplay:10.37,2013-05-12 17:58:00,
2013-05-12 14:03:00,56.5,36.5,29.69,WNW,290,8.1,19.6,47,0.00,BKN,,0.00,WeatherDisplay:10.37,2013-05-12 18:03:00,
2013-05-12 14:08:00,56.8,36.8,29.69,WNW,290,8.1,19.6,47,0.00,BKN,,0.00,WeatherDisplay:10.37,2013-05-12 18:08:00,
2013-05-12 14:13:00,56.8,36.8,29.69,WNW,290,8.1,19.6,47,0.00,BKN,,0.00,WeatherDisplay:10.37,2013-05-12 18:13:00,
2013-05-12 14:18:00,57.6,37.5,29.69,WNW,290,8.1,19.6,47,0.00,BKN,,0.00,WeatherDisplay:10.37,2013-05-12 18:18:00,
2013-05-12 14:23:00,57.9,37.8,29.69,WNW,290,8.1,19.6,47,0.00,BKN,,0.00,WeatherDisplay:10.37,2013-05-12 18:23:00,
2013-05-12 14:28:00,59.2,38.9,29.69,WNW,290,8.1,19.6,47,0.00,BKN,,0.00,WeatherDisplay:10.37,2013-05-12 18:28:00,
2013-05-12 14:33:00,59.0,38.8,29.69,WNW,290,8.1,19.6,47,0.00,BKN,,0.00,WeatherDisplay:10.37,2013-05-12 18:33:00,
2013-05-12 14:38:00,59.7,39.4,29.69,WNW,290,8.1,19.6,47,0.00,BKN,,0.00,WeatherDisplay:10.37,2013-05-12 18:38:00,
2013-05-12 14:43:00,59.0,38.8,29.69,WNW,290,8.1,19.6,47,0.00,BKN,,0.00,WeatherDisplay:10.37,2013-05-12 18:43:00,
2013-05-12 14:48:00,59.5,39.3,29.69,WNW,290,8.1,19.6,47,0.00,BKN,,0.00,WeatherDisplay:10.37,2013-05-12 18:48:00,
2013-05-12 14:53:00,59.2,38.9,29.69,WNW,290,8.1,19.6,47,0.00,BKN,,0.00,WeatherDisplay:10.37,2013-05-12 18:53:00,
2013-05-12 14:58:00,59.7,39.4,29.69,WNW,290,8.1,19.6,47,0.00,BKN,,0.00,WeatherDisplay:10.37,2013-05-12 18:58:00,
2013-05-12 15:03:00,59.9,36.1,29.69,WNW,290,12.7,26.5,41,0.00,BKN,,0.00,WeatherDisplay:10.37,2013-05-12 19:03:00,
2013-05-12 15:08:00,59.7,36.0,29.69,WNW,290,12.7,26.5,41,0.00,BKN,,0.00,WeatherDisplay:10.37,2013-05-12 19:08:00,
2013-05-12 15:13:00,59.5,35.8,29.69,WNW,290,12.7,26.5,41,0.00,BKN,,0.00,WeatherDisplay:10.37,2013-05-12 19:13:00,
2013-05-12 15:18:00,58.8,35.2,29.69,WNW,290,12.7,26.5,41,0.00,BKN,,0.00,WeatherDisplay:10.37,2013-05-12 19:18:00,
2013-05-12 15:23:00,59.2,35.5,29.69,WNW,290,12.7,26.5,41,0.00,BKN,,0.00,WeatherDisplay:10.37,2013-05-12 19:23:00,
2013-05-12 15:28:00,59.4,35.6,29.69,WNW,290,12.7,26.5,41,0.00,BKN,,0.00,WeatherDisplay:10.37,2013-05-12 19:28:00,
2013-05-12 15:33:00,59.0,35.3,29.69,WNW,290,12.7,26.5,41,0.00,BKN,,0.00,WeatherDisplay:10.37,2013-05-12 19:33:00,
2013-05-12 15:38:00,59.7,36.0,29.69,WNW,290,12.7,26.5,41,0.00,BKN,,0.00,WeatherDisplay:10.37,2013-05-12 19:38:00,
2013-05-12 15:43:00,59.4,35.6,29.69,WNW,290,12.7,26.5,41,0.00,BKN,,0.00,WeatherDisplay:10.37,2013-05-12 19:43:00,
2013-05-12 15:48:00,59.5,35.8,29.69,WNW,290,12.7,26.5,41,0.00,BKN,,0.00,WeatherDisplay:10.37,2013-05-12 19:48:00,
2013-05-12 15:53:00,59.7,36.0,29.69,WNW,290,12.7,26.5,41,0.00,BKN,,0.00,WeatherDisplay:10.37,2013-05-12 19:53:00,
2013-05-12 15:58:00,59.7,36.0,29.69,WNW,290,12.7,26.5,41,0.00,BKN,,0.00,WeatherDisplay:10.37,2013-05-12 19:58:00,
2013-05-12 16:03:00,59.4,31.7,29.69,WNW,300,19.6,28.8,35,0.00,BKN,,0.00,WeatherDisplay:10.37,2013-05-12 20:03:00,
2013-05-12 16:08:00,59.5,31.8,29.69,WNW,300,19.6,28.8,35,0.00,BKN,,0.00,WeatherDisplay:10.37,2013-05-12 20:08:00,
2013-05-12 16:13:00,59.5,31.8,29.69,WNW,300,19.6,28.8,35,0.00,BKN,,0.00,WeatherDisplay:10.37,2013-05-12 20:13:00,
2013-05-12 16:18:00,59.5,31.8,29.69,WNW,300,19.6,28.8,35,0.00,BKN,,0.00,WeatherDisplay:10.37,2013-05-12 20:18:00,
2013-05-12 16:23:00,59.2,31.5,29.69,WNW,300,19.6,28.8,35,0.00,BKN,,0.00,WeatherDisplay:10.37,2013-05-12 20:23:00,
2013-05-12 16:28:00,59.2,31.5,29.69,WNW,300,19.6,28.8,35,0.00,BKN,,0.00,WeatherDisplay:10.37,2013-05-12 20:28:00,
2013-05-12 16:33:00,59.4,31.7,29.69,WNW,300,19.6,28.8,35,0.00,BKN,,0.00,WeatherDisplay:10.37,2013-05-12 20:33:00,
2013-05-12 16:38:00,59.4,31.7,29.69,WNW,300,19.6,28.8,35,0.00,BKN,,0.00,WeatherDisplay:10.37,2013-05-12 20:38:00,
2013-05-12 16:43:00,59.4,31.7,29.69,WNW,300,19.6,28.8,35,0.00,BKN,,0.00,WeatherDisplay:10.37,2013-05-12 20:43:00,
2013-05-12 16:48:00,59.0,31.4,29.69,WNW,300,19.6,28.8,35,0.00,BKN,,0.00,WeatherDisplay:10.37,2013-05-12 20:48:00,
2013-05-12 16:53:00,59.0,31.4,29.69,WNW,300,19.6,28.8,35,0.00,BKN,,0.00,WeatherDisplay:10.37,2013-05-12 20:53:00,
2013-05-12 16:58:00,59.4,31.7,29.69,WNW,300,19.6,28.8,35,0.00,BKN,,0.00,WeatherDisplay:10.37,2013-05-12 20:58:00,
2013-05-12 17:03:00,59.4,28.7,29.69,West,280,12.7,23.0,31,0.00,SCT,,0.00,WeatherDisplay:10.37,2013-05-12 21:03:00,
2013-05-12 17:08:00,59.5,28.8,29.69,West,280,12.7,23.0,31,0.00,SCT,,0.00,WeatherDisplay:10.37,2013-05-12 21:08:00,
2013-05-12 17:13:00,59.4,28.7,29.69,West,280,12.7,23.0,31,0.00,SCT,,0.00,WeatherDisplay:10.37,2013-05-12 21:13:00,
2013-05-12 17:18:00,59.4,28.7,29.69,West,280,12.7,23.0,31,0.00,SCT,,0.00,WeatherDisplay:10.37,2013-05-12 21:18:00,
2013-05-12 17:23:00,59.5,28.8,29.69,West,280,12.7,23.0,31,0.00,SCT,,0.00,WeatherDisplay:10.37,2013-05-12 21:23:00,
2013-05-12 17:28:00,59.0,28.4,29.69,West,280,12.7,23.0,31,0.00,SCT,,0.00,WeatherDisplay:10.37,2013-05-12 21:28:00,
2013-05-12 17:33:00,58.6,28.1,29.69,West,280,12.7,23.0,31,0.00,SCT,,0.00,WeatherDisplay:10.37,2013-05-12 21:33:00,
2013-05-12 17:38:00,58.5,27.9,29.69,West,280,12.7,23.0,31,0.00,SCT,,0.00,WeatherDisplay:10.37,2013-05-12 21:38:00,
2013-05-12 17:43:00,58.5,27.9,29.69,West,280,12.7,23.0,31,0.00,SCT,,0.00,WeatherDisplay:10.37,2013-05-12 21:43:00,
2013-05-12 17:48:00,58.3,27.7,29.69,West,280,12.7,23.0,31,0.00,SCT,,0.00,WeatherDisplay:10.37,2013-05-12 21:48:00,
2013-05-12 17:53:00,58.5,27.9,29.69,West,280,12.7,23.0,31,0.00,SCT,,0.00,WeatherDisplay:10.37,2013-05-12 21:53:00,
2013-05-12 17:58:00,58.6,28.1,29.69,West,280,12.7,23.0,31,0.00,SCT,,0.00,WeatherDisplay:10.37,2013-05-12 21:58:00,
2013-05-12 18:03:00,58.6,28.1,29.69,WNW,290,15.0,26.5,31,0.00,BKN,,0.00,WeatherDisplay:10.37,2013-05-12 22:03:00,
2013-05-12 18:08:00,58.1,27.6,29.69,WNW,290,15.0,26.5,31,0.00,BKN,,0.00,WeatherDisplay:10.37,2013-05-12 22:08:00,
2013-05-12 18:13:00,57.7,27.3,29.69,WNW,290,15.0,26.5,31,0.00,BKN,,0.00,WeatherDisplay:10.37,2013-05-12 22:13:00,
2013-05-12 18:18:00,57.7,27.3,29.72,WNW,290,15.0,26.5,31,0.00,BKN,,0.00,WeatherDisplay:10.37,2013-05-12 22:18:00,
2013-05-12 18:23:00,57.6,27.1,29.72,WNW,290,15.0,26.5,31,0.00,BKN,,0.00,WeatherDisplay:10.37,2013-05-12 22:23:00,
2013-05-12 18:28:00,57.6,27.1,29.72,WNW,290,15.0,26.5,31,0.00,BKN,,0.00,WeatherDisplay:10.37,2013-05-12 22:28:00,
2013-05-12 18:33:00,57.6,27.1,29.72,WNW,290,15.0,26.5,31,0.00,BKN,,0.00,WeatherDisplay:10.37,2013-05-12 22:33:00,
2013-05-12 18:38:00,57.4,27.0,29.72,WNW,290,15.0,26.5,31,0.00,BKN,,0.00,WeatherDisplay:10.37,2013-05-12 22:38:00,
2013-05-12 18:43:00,57.0,26.6,29.72,WNW,290,15.0,26.5,31,0.00,BKN,,0.00,WeatherDisplay:10.37,2013-05-12 22:43:00,
2013-05-12 18:48:00,57.0,26.6,29.72,WNW,290,15.0,26.5,31,0.00,BKN,,0.00,WeatherDisplay:10.37,2013-05-12 22:48:00,
2013-05-12 18:53:00,56.8,26.5,29.72,WNW,290,15.0,26.5,31,0.00,BKN,,0.00,WeatherDisplay:10.37,2013-05-12 22:53:00,
2013-05-12 18:58:00,56.8,26.5,29.72,WNW,290,15.0,26.5,31,0.00,BKN,,0.00,WeatherDisplay:10.37,2013-05-12 22:58:00,
2013-05-12 19:03:00,56.7,30.0,29.72,WNW,300,15.0,15.0,36,0.00,BKN,,0.00,WeatherDisplay:10.37,2013-05-12 23:03:00,
2013-05-12 19:08:00,56.7,30.0,29.72,WNW,300,15.0,15.0,36,0.00,BKN,,0.00,WeatherDisplay:10.37,2013-05-12 23:08:00,
2013-05-12 19:13:00,56.5,29.8,29.72,WNW,300,15.0,15.0,36,0.00,BKN,,0.00,WeatherDisplay:10.37,2013-05-12 23:13:00,
2013-05-12 19:18:00,56.5,29.8,29.75,WNW,300,15.0,15.0,36,0.00,BKN,,0.00,WeatherDisplay:10.37,2013-05-12 23:18:00,
2013-05-12 19:23:00,56.3,29.7,29.75,WNW,300,15.0,15.0,36,0.00,BKN,,0.00,WeatherDisplay:10.37,2013-05-12 23:23:00,
2013-05-12 19:28:00,56.1,29.5,29.75,WNW,300,15.0,15.0,36,0.00,BKN,,0.00,WeatherDisplay:10.37,2013-05-12 23:28:00,
2013-05-12 19:33:00,55.9,29.3,29.75,WNW,300,15.0,15.0,36,0.00,BKN,,0.00,WeatherDisplay:10.37,2013-05-12 23:33:00,
2013-05-12 19:38:00,55.9,29.3,29.75,WNW,300,15.0,15.0,36,0.00,BKN,,0.00,WeatherDisplay:10.37,2013-05-12 23:38:00,
2013-05-12 19:43:00,55.8,29.2,29.75,WNW,300,15.0,15.0,36,0.00,BKN,,0.00,WeatherDisplay:10.37,2013-05-12 23:43:00,
2013-05-12 19:48:00,55.8,29.2,29.75,WNW,300,15.0,15.0,36,0.00,BKN,,0.00,WeatherDisplay:10.37,2013-05-12 23:48:00,
2013-05-12 19:53:00,55.4,28.9,29.75,WNW,300,15.0,15.0,36,0.00,BKN,,0.00,WeatherDisplay:10.37,2013-05-12 23:53:00,
2013-05-12 19:58:00,55.2,28.7,29.75,WNW,300,15.0,15.0,36,0.00,BKN,,0.00,WeatherDisplay:10.37,2013-05-12 23:58:00,
2013-05-12 20:03:00,55.0,28.5,29.77,WNW,300,15.0,15.0,36,0.00,OVC,,0.00,WeatherDisplay:10.37,2013-05-13 00:03:00,
2013-05-12 20:08:00,54.7,28.2,29.77,WNW,300,15.0,15.0,36,0.00,OVC,,0.00,WeatherDisplay:10.37,2013-05-13 00:08:00,
2013-05-12 20:13:00,54.5,28.1,29.77,WNW,300,15.0,15.0,36,0.00,OVC,,0.00,WeatherDisplay:10.37,2013-05-13 00:13:00,
2013-05-12 20:18:00,54.3,27.9,29.77,WNW,300,15.0,15.0,36,0.00,OVC,,0.00,WeatherDisplay:10.37,2013-05-13 00:18:00,
2013-05-12 20:23:00,54.0,27.6,29.77,WNW,300,15.0,15.0,36,0.00,OVC,,0.00,WeatherDisplay:10.37,2013-05-13 00:23:00,
2013-05-12 20:28:00,53.8,27.4,29.77,WNW,300,15.0,15.0,36,0.00,OVC,,0.00,WeatherDisplay:10.37,2013-05-13 00:28:00,
2013-05-12 20:33:00,53.4,27.1,29.77,WNW,300,15.0,15.0,36,0.00,OVC,,0.00,WeatherDisplay:10.37,2013-05-13 00:33:00,
2013-05-12 20:38:00,53.2,26.9,29.77,WNW,300,15.0,15.0,36,0.00,OVC,,0.00,WeatherDisplay:10.37,2013-05-13 00:38:00,
2013-05-12 20:43:00,53.1,26.8,29.77,WNW,300,15.0,15.0,36,0.00,OVC,,0.00,WeatherDisplay:10.37,2013-05-13 00:43:00,
2013-05-12 20:48:00,52.9,26.6,29.77,WNW,300,15.0,15.0,36,0.00,OVC,,0.00,WeatherDisplay:10.37,2013-05-13 00:48:00,
2013-05-12 20:53:00,52.5,26.3,29.77,WNW,300,15.0,15.0,36,0.00,OVC,,0.00,WeatherDisplay:10.37,2013-05-13 00:53:00,
2013-05-12 20:58:00,52.3,26.1,29.77,WNW,300,15.0,15.0,36,0.00,OVC,,0.00,WeatherDisplay:10.37,2013-05-13 00:58:00,
2013-05-12 21:03:00,52.3,32.7,29.81,West,270,8.1,8.1,47,0.00,SCT,,0.00,WeatherDisplay:10.37,2013-05-13 01:03:00,
2013-05-12 21:08:00,52.3,32.7,29.81,West,270,8.1,8.1,47,0.00,SCT,,0.00,WeatherDisplay:10.37,2013-05-13 01:08:00,
2013-05-12 21:13:00,52.2,32.5,29.81,West,270,8.1,8.1,47,0.00,SCT,,0.00,WeatherDisplay:10.37,2013-05-13 01:13:00,
2013-05-12 21:18:00,51.8,32.2,29.81,West,270,8.1,8.1,47,0.00,SCT,,0.00,WeatherDisplay:10.37,2013-05-13 01:18:00,
2013-05-12 21:23:00,51.6,32.0,29.81,West,270,8.1,8.1,47,0.00,SCT,,0.00,WeatherDisplay:10.37,2013-05-13 01:23:00,
2013-05-12 21:28:00,51.6,32.0,29.81,West,270,8.1,8.1,47,0.00,SCT,,0.00,WeatherDisplay:10.37,2013-05-13 01:28:00,
2013-05-12 21:33:00,51.6,32.0,29.81,West,270,8.1,8.1,47,0.00,SCT,,0.00,WeatherDisplay:10.37,2013-05-13 01:33:00,
2013-05-12 21:38:00,51.4,31.9,29.81,West,270,8.1,8.1,47,0.00,SCT,,0.00,WeatherDisplay:10.37,2013-05-13 01:38:00,
2013-05-12 21:43:00,51.3,31.7,29.81,West,270,8.1,8.1,47,0.00,SCT,,0.00,WeatherDisplay:10.37,2013-05-13 01:43:00,
2013-05-12 21:48:00,51.1,31.5,29.81,West,270,8.1,8.1,47,0.00,SCT,,0.00,WeatherDisplay:10.37,2013-05-13 01:48:00,
2013-05-12 21:53:00,50.7,31.2,29.81,West,270,8.1,8.1,47,0.00,SCT,,0.00,WeatherDisplay:10.37,2013-05-13 01:53:00,
2013-05-12 21:58:00,50.4,30.9,29.81,West,270,8.1,8.1,47,0.00,SCT,,0.00,WeatherDisplay:10.37,2013-05-13 01:58:00,
2013-05-12 22:03:00,50.0,38.7,29.81,WNW,290,4.6,4.6,65,0.00,SCT,,0.00,WeatherDisplay:10.37,2013-05-13 02:03:00,
2013-05-12 22:08:00,50.0,38.7,29.81,WNW,290,4.6,4.6,65,0.00,SCT,,0.00,WeatherDisplay:10.37,2013-05-13 02:08:00,
2013-05-12 22:13:00,49.8,38.5,29.81,WNW,290,4.6,4.6,65,0.00,SCT,,0.00,WeatherDisplay:10.37,2013-05-13 02:13:00,
2013-05-12 22:18:00,49.3,38.0,29.83,WNW,290,4.6,4.6,65,0.00,SCT,,0.00,WeatherDisplay:10.37,2013-05-13 02:18:00,
2013-05-12 22:23:00,49.1,37.8,29.83,WNW,290,4.6,4.6,65,0.00,SCT,,0.00,WeatherDisplay:10.37,2013-05-13 02:23:00,
2013-05-12 22:28:00,48.9,37.7,29.83,WNW,290,4.6,4.6,65,0.00,SCT,,0.00,WeatherDisplay:10.37,2013-05-13 02:28:00,
2013-05-12 22:33:00,48.7,37.5,29.83,WNW,290,4.6,4.6,65,0.00,SCT,,0.00,WeatherDisplay:10.37,2013-05-13 02:33:00,
2013-05-12 22:38:00,48.7,37.5,29.83,WNW,290,4.6,4.6,65,0.00,SCT,,0.00,WeatherDisplay:10.37,2013-05-13 02:38:00,
2013-05-12 22:43:00,48.7,37.5,29.83,WNW,290,4.6,4.6,65,0.00,SCT,,0.00,WeatherDisplay:10.37,2013-05-13 02:43:00,
2013-05-12 22:48:00,48.7,37.5,29.83,WNW,290,4.6,4.6,65,0.00,SCT,,0.00,WeatherDisplay:10.37,2013-05-13 02:48:00,
2013-05-12 22:53:00,48.6,37.3,29.83,WNW,290,4.6,4.6,65,0.00,SCT,,0.00,WeatherDisplay:10.37,2013-05-13 02:53:00,
2013-05-12 22:58:00,48.2,37.0,29.83,WNW,290,4.6,4.6,65,0.00,SCT,,0.00,WeatherDisplay:10.37,2013-05-13 02:58:00,
2013-05-12 23:03:00,48.2,35.8,29.83,WNW,290,8.1,8.1,62,0.00,FEW,,0.00,WeatherDisplay:10.37,2013-05-13 03:03:00,
2013-05-12 23:08:00,48.0,35.6,29.83,WNW,290,8.1,8.1,62,0.00,FEW,,0.00,WeatherDisplay:10.37,2013-05-13 03:08:00,
2013-05-12 23:13:00,48.0,35.6,29.83,WNW,290,8.1,8.1,62,0.00,FEW,,0.00,WeatherDisplay:10.37,2013-05-13 03:13:00,
2013-05-12 23:18:00,47.8,35.4,29.83,WNW,290,8.1,8.1,62,0.00,FEW,,0.00,WeatherDisplay:10.37,2013-05-13 03:18:00,
2013-05-12 23:23:00,48.0,35.6,29.83,WNW,290,8.1,8.1,62,0.00,FEW,,0.00,WeatherDisplay:10.37,2013-05-13 03:23:00,
2013-05-12 23:28:00,47.8,35.4,29.83,WNW,290,8.1,8.1,62,0.00,FEW,,0.00,WeatherDisplay:10.37,2013-05-13 03:28:00,
2013-05-12 23:33:00,47.7,35.3,29.83,WNW,290,8.1,8.1,62,0.00,FEW,,0.00,WeatherDisplay:10.37,2013-05-13 03:33:00,
2013-05-12 23:38:00,47.5,35.1,29.83,WNW,290,8.1,8.1,62,0.00,FEW,,0.00,WeatherDisplay:10.37,2013-05-13 03:38:00,
2013-05-12 23:43:00,47.7,35.3,29.83,WNW,290,8.1,8.1,62,0.00,FEW,,0.00,WeatherDisplay:10.37,2013-05-13 03:43:00,
2013-05-12 23:48:00,47.5,35.1,29.86,WNW,290,8.1,8.1,62,0.00,FEW,,0.00,WeatherDisplay:10.37,2013-05-13 03:48:00,
2013-05-12 23:53:00,46.9,34.6,29.86,WNW,290,8.1,8.1,62,0.00,FEW,,0.00,WeatherDisplay:10.37,2013-05-13 03:53:00,
2013-05-12 23:58:00,46.9,34.6,29.86,WNW,290,8.1,8.1,62,0.00,FEW,,0.00,WeatherDisplay:10.37,2013-05-13 03:58:00,